Regional Weather Roundup
Issued by NWS

Home | Current Version | Previous Version | Text Only | Print | Product List | Glossary Off
Versions: 1 2 3 4 5 6 7 8 9 10 11 12 13 14 15 16 17 18 19 20 21 22 23 24 25 26 27

000
ASUS45 KBOU 160007
RWRCO

WEATHER ROUNDUP FOR COLORADO
NATIONAL WEATHER SERVICE DENVER/BOULDER CO
600 PM MDT TUE AUG 15 2017

NOTE: "FAIR" INDICATES FEW OR NO CLOUDS BELOW 12000 FEET WITH NO
SIGNIFICANT WEATHER AND/OR OBSTRUCTIONS TO VISIBILITY.

COZ001>005-013-030-031-160100-
...NORTHWEST COLORADO...

CITY           SKY/WX    TMP DP  RH WIND       PRES   REMARKS
CRAIG          CLOUDY    63  45  51 N10       30.11R
HAYDEN         CLOUDY    63  48  59 N6        30.14R
MEEKER         TSTM      58  49  72 N15G28    30.09R
RABBIT EARS PA MOCLDY    45  43  93 NW10G21   30.29F THUNDER
STEAMBOAT SPGS PTSUNNY   59  45  60 NW8       30.12F
WALDEN         CLOUDY    50  43  76 N15G22    30.20R
$$

COZ006>008-011-160100-
...WEST CENTRAL VALLEYS...

CITY           SKY/WX    TMP DP  RH WIND       PRES   REMARKS
GRAND JUNCTION CLOUDY    78  35  21 NW10      29.95R
MONTROSE       FAIR      76  29  17 SW13      30.02S
EAGLE          FAIR      76  23  14 SW23G29   30.04F
RIFLE          PTSUNNY   77  32  19 W12       29.99R
DELTA          NOT AVBL
NUCLA          FAIR      75  19  12 SW3       30.08S
$$

COZ017>023-064>068-160100-
...SOUTHWEST COLORADO...

CITY           SKY/WX    TMP DP  RH WIND       PRES   REMARKS
DURANGO        FAIR      72  27  18 W8        30.10S
CORTEZ         PTSUNNY   78  29  16 NW20G26   30.05S
PAGOSA SPRINGS FAIR      70  23  17 W8G16     30.16S
TELLURIDE      FAIR      62  28  27 W6        30.27S
WOLF CREEK PAS NOT AVBL
$$

COZ009-010-012-014-032>034-037-058>063-160100-
...CENTRAL COLORADO...

CITY           SKY/WX    TMP DP  RH WIND       PRES   REMARKS
ASPEN          FAIR      69  21  16 W13G21    30.11R
BUENA VISTA    FAIR      70  27  19 W15G21    30.09F
COPPER MTN     PTSUNNY   54  28  37 W14       30.40R
BERTHOUD PASS  CLOUDY    45  39  81 NW25      30.41S
COTTONWOOD PAS FAIR      63  19  19 SW20G29   30.24F
GUNNISON       FAIR      66  33  29 W12G18    30.14R
KREMMLING      PTSUNNY   72  34  25 NW3       30.10R
LEADVILLE      CLOUDY    58  27  30 W7        30.23S
MONARCH PASS   CLOUDY    48  23  37 W29G36    30.49F
SALIDA         FAIR      71  30  21 W14       30.14S
SUNLIGHT       PTSUNNY   50  28  43 SW12G23   30.36R
WILKERSON PASS FAIR      54  27  35 SW13G22   30.35S
$$

COZ069>075-160100-
...SAN LUIS VALLEY/SANGRE DE CRISTO MOUNTAINS...

CITY           SKY/WX    TMP DP  RH WIND       PRES   REMARKS
ALAMOSA        FAIR      70  35  27 W12       30.09S
DEL NORTE      FAIR      67  34  30 SW15      30.13F
LA VETA PASS   NOT AVBL
SAGUACHE       FAIR      66  37  34 W10       30.12S
$$

COZ035-036-038>040-160100-
...NORTHERN COLORADO FRONT RANGE...

CITY           SKY/WX    TMP DP  RH WIND       PRES   REMARKS
DENVER INTL AP PTSUNNY   73  45  36 S13G22    29.89R
DMNS CITY PARK   N/A     76  45  33 E9G17     29.89F
AURORA         PTSUNNY   72  47  42 SE13      29.91S
FRONT RANGE AP FAIR      72  46  40 SE15G22   29.89F
ERIE MUNI ARPT FAIR      80  47  31 N5        29.90S
BOULDER MUN AP PTSUNNY   79  43  27 NE5       29.87S
CENTENNIAL     PTSUNNY   69  48  47 SE10      29.93F
BROOMFIELD     CLOUDY    79  41  25 S3        29.91S
FORT COLLINS   FAIR      78  54  43 NE9       29.89R
LONGMONT       FAIR      81  49  32 NE7       29.88S
$$

COZ041-046-047-076>085-087-088-160100-
...PIKES PEAK/PALMER DIVIDE AND SOUTHERN FOOTHILLS...

CITY           SKY/WX    TMP DP  RH WIND       PRES   REMARKS
COLO. SPRINGS  PTSUNNY   78  48  34 NE14      29.94R
A. F. ACADEMY  FAIR      72  53  50 N14       29.96R
SCHRIEVER AFB  FAIR      74  45  34 N12       29.94R
CHEYENNE MTN   FAIR      73  41  31 NW8       29.94R
ELLICOTT       FAIR       1   1 100 S16G24    29.91F WCI -19
FALCON         FAIR      75  44  33 N6        30.00S
FORT CARSON    SUNNY     81  45  28 W7        29.89S
LIMON          TSTM      60  56  86 NW9       29.92R
MONUMENT HILL  CLOUDY    64  50  59 N7        30.03F
CANON CITY     MOSUNNY   84  39  20 W15G24    29.86R
WALSENBURG     FAIR      84  28  13 W17G26    29.91S
TRINIDAD       FAIR      76  49  38 E10       29.91F
$$

COZ042>045-048>051-090-091-160100-
...NORTHEAST COLORADO...

CITY           SKY/WX    TMP DP  RH WIND       PRES   REMARKS
GREELEY ARPT   PTSUNNY   71  58  63 NE20G26   29.90R THUNDER
AKRON          FAIR      79  61  53 SE10      29.85R
BURLINGTON     FAIR      82  63  52 SE18      29.81F
WRAY           NOT AVBL
YUMA           FAIR      79  50  36 S6        29.80R
STERLING       FAIR      81  64  57 S5        29.80R
HOLYOKE        FAIR      81  63  54 S15       29.77R
FORT MORGAN    FAIR      81  58  45 NE3       29.87R
$$

COZ086-089-092>099-160100-
...SOUTHEAST COLORADO...

CITY           SKY/WX    TMP DP  RH WIND       PRES   REMARKS
PUEBLO         FAIR      84  50  30 SE8       29.79F
LA JUNTA       FAIR      81  49  32 SE24G32   29.78F
LAMAR          FAIR      77  52  41 SW23G37   29.76S THUNDER
SPRINGFIELD      N/A     78  64  61 VRB7      29.85R
$$




USA.gov is the U.S. government's official web portal to all federal, state and local government web resources and services.